Regional Weather Roundup
Issued by NWS

Home | Current Version | Previous Version | Text Only | Print | Product List | Glossary On
Versions: 1 2 3 4 5 6 7 8 9 10 11 12 13 14 15 16 17 18 19 20 21 22 23 24 25 26 27 28 29 30 31 32 33 34 35 36 37 38 39 40 41 42 43 44 45 46 47 48 49 50
000
ASUS43 KTOP 282108
RWRKS

WEATHER ROUNDUP FOR KANSAS
NATIONAL WEATHER SERVICE GOODLAND KS
300 PM CST SUN DEC 28 2014

NOTE:  "FAIR" INDICATES FEW OR NO CLOUDS BELOW 12,000 FEET WITH NO
SIGNIFICANT WEATHER AND/OR OBSTRUCTIONS TO VISIBILITY.

KSZ001>006-013>018-027>032-041>047-282200-
NORTHWEST KANSAS

CITY           SKY/WX    TMP DP  RH WIND       PRES   REMARKS
GOODLAND       CLOUDY    32  24  72 E5        29.92S
HAYS           PTSUNNY   39  19  45 S9        30.01F
HILL CITY      CLOUDY    36  22  56 CALM      30.01F
RUSSELL        MOSUNNY   41  22  46 S12       30.01F
$$

KSZ061>065-074>080-084>089-282200-
SOUTHWEST KANSAS

CITY           SKY/WX    TMP DP  RH WIND       PRES   REMARKS
DODGE CITY     SUNNY     41  17  38 S16       29.97F
ELKHART          N/A     43  20  40 SE7         N/A
GARDEN CITY    SUNNY     38  20  48 S13G21    29.93F WCI  30
GREAT BEND     MOSUNNY   43  21  42 S12       30.02F
LIBERAL        SUNNY     41  21  45 S9        29.96F
PRATT          SUNNY     41  18  38 SE14      30.03F
$$

KSZ066>073-081>083-090>101-282200-
SOUTHEAST KANSAS

CITY           SKY/WX    TMP DP  RH WIND       PRES   REMARKS
CHANUTE        SUNNY     39  18  42 SW3       30.15F
COFFEYVILLE    SUNNY     40  20  44 CALM      30.16F
HUTCHINSON     MOSUNNY   43  19  38 S8        30.06F
MEDICINE LODGE   N/A     41  20  43 S12       30.04F
NEWTON         MOSUNNY   39  18  41 S10       30.10F WCI  32
PARSONS        SUNNY     40  15  36 VRB6      30.17F
WICHITA INTL   MOSUNNY   41  20  43 S12       30.09F
WICHITA JABRA  SUNNY     40  18  41 S8        30.09F
WICHITA MCCONL SUNNY     41  19  41 S9        30.10F
WINFIELD       SUNNY     41  18  39 S7        30.12F
$$

KSZ007>012-019>026-033>040-048>060-102>105-282200-
NORTHEAST KANSAS

CITY           SKY/WX    TMP DP  RH WIND       PRES   REMARKS
CONCORDIA      SUNNY     39  23  52 S7        30.07F
EMPORIA        MOSUNNY   39  19  44 S8        30.11F
LAWRENCE       SUNNY     39  19  44 S6        30.14F
MANHATTAN      SUNNY     40  20  44 CALM      30.10F
MARYSVILLE     MOSUNNY   41  21  45 CALM      30.09S
OLATHE IND     SUNNY     38  20  48 S8        30.14F
OLATHE EXE     SUNNY     38  19  46 S7        30.13F
SALINA         MOSUNNY   42  22  44 S12       30.08F
TOPEKA BILLARD SUNNY     41  20  43 S6        30.13F
TOPEKA FORBES  SUNNY     40  19  43 S8        30.12F
$$



USA.gov is the U.S. government's official web portal to all federal, state and local government web resources and services.